Weather History for Kaneohe MCBH, HI

Change the Weather History Date:

Saturday, December 8, 2012

  Actual Average Record
Temperature  
Mean Temperature 76 °F -  
Max Temperature 80 °F 76 °F 84 °F (2013)
Min Temperature 73 °F 68 °F 62 °F (2010)
Cooling Degree Days 12    
Growing Degree Days 26 (Base 50)    
Moisture  
Dew Point 69 °F    
Average Humidity 76    
Maximum Humidity 89    
Minimum Humidity 65    
Precipitation  
Precipitation 0.00 in - - ()
Sea Level Pressure  
Sea Level Pressure 29.95 in    
Wind  
Wind Speed 7 mph (East)    
Max Wind Speed 15 mph    
Max Gust Speed 28 mph    
Visibility 9 miles    
Events      
Averages and records for this station are not official NWS values.
T = Trace of Precipitation, MM = Missing Value Source: NWS Daily Summary

Daily Weather History Graph

Daily Weather History Graph

Search for Another Location

Airport:

Trip Planner

Search our weather history database for the weather conditions in past years. The results will help you decide how hot, cold, wet, or windy it might be!

Date:

Astronomy

Dec. 08, 2012 Rise Set
Actual Time 6:57 AM HST 5:49 PM HST
Civil Twilight 6:33 AM HST 6:13 PM HST
Nautical Twilight 6:05 AM HST 6:41 PM HST
Astronomical Twilight 5:38 AM HST 7:08 PM HST
Moon 2:04 AM HST (12/8) 2:00 PM HST (12/8)
Length of Visible Light 11h 40m
Length of Day
10h 51m
Waning Crescent, 26% of the Moon is Illuminated
Dec 8
Waning Crescent
Dec 12
New
Dec 19
First Quarter
Dec 28
Full
Jan 4
Last Quarter

Hourly Weather History & Observations

Time (HST) Temp. Heat Index Dew Point Humidity Pressure Visibility Wind Dir Wind Speed Gust Speed Precip Events Conditions
12:08 AM - - - N/A% 29.96 in 6.2 mi East 4.6 mph - N/A   Mostly Cloudy
12:57 AM - - - N/A% 29.94 in 10.0 mi East 8.1 mph - N/A   Mostly Cloudy
1:11 AM - - - N/A% 29.95 in 6.2 mi Calm Calm - N/A   Mostly Cloudy
1:57 AM - - - N/A% 29.92 in 10.0 mi East 8.1 mph - N/A   Mostly Cloudy
2:57 AM - - - N/A% 29.91 in 10.0 mi East 11.5 mph 18.4 mph N/A   Mostly Cloudy
3:45 AM - - - N/A% 29.92 in 6.2 mi SE 4.6 mph - N/A   Scattered Clouds
3:57 AM - - - N/A% 29.91 in 10.0 mi Variable 3.5 mph - N/A   Scattered Clouds
4:57 AM - - - N/A% 29.92 in 10.0 mi Variable 3.5 mph - N/A   Overcast
5:14 AM - - - N/A% 29.93 in 6.2 mi ESE 3.5 mph - N/A   Overcast
5:33 AM - - - N/A% 29.94 in 6.2 mi Calm Calm - N/A   Mostly Cloudy
5:57 AM - - - N/A% 29.92 in 10.0 mi East 4.6 mph - N/A   Overcast
6:57 AM 73.4 °F - 70.0 °F 89% 29.95 in 10.0 mi Calm Calm - N/A   Mostly Cloudy
7:57 AM 75.2 °F - 69.1 °F 81% 29.96 in 10.0 mi ENE 5.8 mph - N/A   Mostly Cloudy
8:57 AM 78.8 °F - 70.0 °F 74% 29.98 in 10.0 mi ENE 11.5 mph 17.3 mph N/A   Mostly Cloudy
9:22 AM 78.8 °F - 69.8 °F 74% 29.98 in 6.2 mi East 9.2 mph - N/A   Mostly Cloudy
9:57 AM 78.8 °F - 70.0 °F 74% 29.97 in 10.0 mi East 11.5 mph - N/A   Mostly Cloudy
10:18 AM 78.8 °F - 68.0 °F 69% 29.98 in 6.2 mi East 13.8 mph 19.6 mph N/A   Scattered Clouds
10:57 AM 80.6 °F 83.2 °F 68.0 °F 65% 29.97 in 10.0 mi ESE 10.4 mph - N/A   Clear
11:57 AM 80.6 °F 83.2 °F 68.0 °F 65% 29.94 in 10.0 mi East 11.5 mph 18.4 mph N/A   Partly Cloudy
12:57 PM 80.6 °F 83.2 °F 68.0 °F 65% 29.91 in 10.0 mi ENE 10.4 mph 17.3 mph N/A   Scattered Clouds
1:57 PM 78.8 °F - 68.0 °F 69% 29.90 in 10.0 mi ENE 9.2 mph 17.3 mph N/A   Scattered Clouds
2:57 PM 78.8 °F - 66.9 °F 67% 29.89 in 10.0 mi NE 10.4 mph - N/A   Scattered Clouds
3:32 PM 78.8 °F - 69.8 °F 74% 29.90 in 10.0 mi ENE 6.9 mph - N/A   Mostly Cloudy
3:57 PM 78.8 °F - 70.0 °F 74% 29.89 in 10.0 mi ENE 4.6 mph - N/A   Scattered Clouds
4:57 PM 78.8 °F - 70.0 °F 74% 29.91 in 10.0 mi East 11.5 mph 16.1 mph N/A   Scattered Clouds
5:04 PM - - - N/A% 29.92 in 10.0 mi East 9.2 mph 19.6 mph N/A   Mostly Cloudy
5:37 PM 78.8 °F - 69.8 °F 74% 29.93 in 10.0 mi East 10.4 mph 16.1 mph N/A   Overcast
5:57 PM 78.8 °F - 69.1 °F 72% 29.93 in 10.0 mi East 8.1 mph 16.1 mph N/A   Scattered Clouds
6:57 PM 77.0 °F - 68.0 °F 74% 29.94 in 10.0 mi East 9.2 mph - N/A   Mostly Cloudy
7:10 PM 77.0 °F - 69.8 °F 78% 29.96 in 10.0 mi East 10.4 mph 16.1 mph N/A   Mostly Cloudy
7:23 PM 77.0 °F - 69.8 °F 78% 29.97 in 10.0 mi East 9.2 mph - N/A   Mostly Cloudy
7:31 PM 77.0 °F - 69.8 °F 78% 29.97 in 10.0 mi ENE 11.5 mph 18.4 mph N/A   Mostly Cloudy
7:57 PM 75.2 °F - 69.1 °F 81% 29.96 in 10.0 mi East 9.2 mph - N/A   Mostly Cloudy
8:50 PM 75.2 °F - 69.8 °F 83% 29.99 in 10.0 mi East 11.5 mph 20.7 mph N/A   Overcast
8:57 PM 75.2 °F - 70.0 °F 84% 29.98 in 10.0 mi East 11.5 mph 19.6 mph N/A   Overcast
9:23 PM 75.2 °F - 69.8 °F 83% 30.00 in 10.0 mi East 13.8 mph 21.9 mph N/A   Overcast
9:57 PM 75.2 °F - 70.0 °F 84% 29.99 in 10.0 mi East 15.0 mph 24.2 mph N/A   Overcast
10:06 PM - - - N/A% 30.00 in 10.0 mi East 12.7 mph 27.6 mph N/A   Overcast
10:19 PM 77.0 °F - 69.8 °F 78% 30.01 in 10.0 mi ESE 9.2 mph 19.6 mph N/A   Overcast
10:57 PM 77.0 °F - 70.0 °F 79% 29.99 in 10.0 mi East 12.7 mph 21.9 mph N/A   Overcast
11:57 PM 77.0 °F - 70.0 °F 79% 29.98 in 10.0 mi East 9.2 mph 20.7 mph N/A   Overcast